Location: ????????
(55.5667°N, 37.5833°E)
Time: 05:21:34
(UTC+00:00)

ATLAS 3B R/B - Pass Details

Date: 14 April 2026
Orbit: 937 x 1257 km, 63.8° (Epoch: 10 May)

Event Time Altitude Azimuth Distance (km) Brightness Sun altitude
Rises 17:57:29 0° 253° (WSW) 4,143 6.3 -11.4°
Reaches altitude 10° 18:00:17 10° 257° (WSW) 3,204 5.8 -11.7°
Maximum altitude 18:08:00 59° 336° (NNW) 1,437 3.7 -12.5°
Drops below altitude 10° 18:15:46 10° 56° (NE) 3,227 5.1 -13.4°
Sets 18:18:37 0° 60° (ENE) 4,174 5.6 -13.7°
